TimePST,TemperatureF,Dew PointF,Humidity,Sea Level PressureIn,VisibilityMPH,Wind Direction,Wind SpeedMPH,Gust SpeedMPH,PrecipitationIn,Events,Conditions,WindDirDegrees,DateUTC
12:53 AM,50.0,44.1,80,29.93,10.0,SW,11.5,16.1,0.00,,Overcast,220,2012-12-03 08:53:00
1:53 AM,50.0,43.0,77,29.96,10.0,SSW,8.1,-,N/A,,Mostly Cloudy,200,2012-12-03 09:53:00
2:53 AM,50.0,43.0,77,29.98,10.0,South,10.4,-,0.00,Rain,Light Rain,190,2012-12-03 10:53:00
3:53 AM,50.0,43.0,77,29.98,10.0,SSW,8.1,-,0.00,Rain,Light Rain,200,2012-12-03 11:53:00
4:53 AM,48.9,44.1,83,29.99,10.0,SSW,10.4,-,0.00,Rain,Light Rain,200,2012-12-03 12:53:00
5:53 AM,48.9,44.1,83,29.99,7.0,SSW,11.5,18.4,0.00,Rain,Light Rain,200,2012-12-03 13:53:00
6:27 AM,48.2,44.6,87,30.00,9.0,Calm,Calm,-,0.00,Rain,Light Rain,0,2012-12-03 14:27:00
7:53 AM,50.0,44.1,80,30.02,10.0,SSW,5.8,-,0.00,Rain,Light Rain,210,2012-12-03 15:53:00
8:53 AM,50.0,44.1,80,30.03,8.0,SSW,12.7,20.7,0.00,Rain,Light Rain,200,2012-12-03 16:53:00
9:53 AM,51.1,45.0,80,30.04,10.0,Calm,Calm,-,0.02,,Overcast,0,2012-12-03 17:53:00
10:53 AM,53.1,45.0,74,30.05,10.0,WSW,8.1,-,N/A,,Overcast,240,2012-12-03 18:53:00
11:53 AM,55.0,43.0,64,30.04,10.0,SSW,10.4,-,N/A,,Overcast,210,2012-12-03 19:53:00
12:53 PM,54.0,43.0,66,30.03,10.0,SSW,11.5,-,0.00,Rain,Light Rain,210,2012-12-03 20:53:00
1:53 PM,55.9,45.0,67,30.01,10.0,Calm,Calm,-,0.00,,Overcast,0,2012-12-03 21:53:00
2:53 PM,55.0,44.1,67,30.01,10.0,South,3.5,-,0.00,,Overcast,190,2012-12-03 22:53:00
3:53 PM,53.1,45.0,74,30.01,10.0,East,9.2,-,0.00,,Overcast,90,2012-12-03 23:53:00
4:53 PM,51.1,45.0,80,29.98,10.0,East,11.5,-,N/A,,Overcast,90,2012-12-04 00:53:00
5:53 PM,51.1,45.0,80,29.95,10.0,East,10.4,-,N/A,,Overcast,80,2012-12-04 01:53:00
6:53 PM,50.0,44.1,80,29.92,10.0,East,9.2,-,N/A,,Partly Cloudy,90,2012-12-04 02:53:00
7:53 PM,51.1,44.1,77,29.87,10.0,East,11.5,-,N/A,,Overcast,90,2012-12-04 03:53:00
8:53 PM,50.0,43.0,77,29.81,10.0,East,11.5,-,N/A,,Overcast,90,2012-12-04 04:53:00
9:53 PM,50.0,43.0,77,29.76,10.0,East,15.0,-,N/A,,Overcast,90,2012-12-04 05:53:00
10:53 PM,48.9,43.0,80,29.76,9.0,Calm,Calm,-,0.01,Rain,Light Rain,0,2012-12-04 06:53:00
11:53 PM,48.0,44.1,86,29.68,9.0,East,13.8,-,0.08,Rain,Light Rain,90,2012-12-04 07:53:00